Tracking 21612 objects as of 20-Oct-2020
HD Live streaming from Space Station
objects crossing your sky now

COSMOS 2197

Track COSMOS 2197 now!
10-day predictions
COSMOS 2197 is classified as:


NORAD ID: 22034
Int'l Code: 1992-042A
Perigee: 1,403.9 km
Apogee: 1,421.9 km
Inclination: 82.6 °
Period: 113.9 minutes
Semi major axis: 7783 km
RCS: 1.1368 m2 (large)
Launch date: July 13, 1992
Source: Commonwealth of Independent States (former USSR) (CIS)
Launch site: PLESETSK MISSILE AND SPACE COMPLEX (PKMTR)
aabbcc
Your satellite tracking list
Your tracking list is empty




NASA's NSSDC Master Catalog

Two Line Element Set (TLE):
1 22034U 92042A   20293.01776388  .00000014  00000-0  18094-4 0  9995
2 22034  82.5897 109.7598 0011537 298.2638 224.9472 12.64170268304370
Source of the keplerian elements: AFSPC